DW4691 Weather Reports


time (UTC)temp
C
wind
direction
speed
KPH
gust
KPH
rain 1hr
cm
rain 24hr
cm
rain mn
cm
humidity
%
barometer
mb
20260902161601 30 0 0.0 3.2 0.00 0.00 0.00 78 1015.1
20260902160051 30 0 0.0 6.4 0.00 0.00 0.00 80 1015.1
20260902154609 29 0 0.0 3.2 0.00 0.00 0.00 82 1015.1
20260902153100 28 0 0.0 4.8 0.00 0.00 0.00 84 1015.1
20260902151607 28 0 0.0 0.0 0.00 0.00 0.00 85 1015.2
20260902150052 27 0 0.0 0.0 0.00 0.00 0.00 86 1015.3
20260902144601 27 0 0.0 0.0 0.00 0.00 0.00 86 1015.2
20260902143057 27 0 0.0 0.0 0.00 0.00 0.00 87 1015.3
20260902141604 27 0 0.0 0.0 0.00 0.00 0.00 88 1015.2
20260902140051 27 0 0.0 0.0 0.00 0.00 0.00 88 1015.1
20260902134619 27 0 0.0 0.0 0.00 0.00 0.00 88 1015.1
20260902133100 26 0 0.0 0.0 0.00 0.00 0.00 88 1015.1
20260902131553 26 0 0.0 0.0 0.00 0.00 0.00 89 1014.8
20260902130052 26 0 0.0 0.0 0.00 0.00 0.00 89 1014.6
20260902124551 26 0 0.0 0.0 0.00 0.00 0.00 89 1014.4
20260902123054 26 0 0.0 3.2 0.00 0.00 0.00 88 1014.1
20260902121551 26 0 0.0 1.6 0.00 0.00 0.00 88 1013.7
20260902120051 26 0 0.0 1.6 0.00 0.00 0.00 88 1013.5
20260902114546 26 0 0.0 3.2 0.00 0.00 0.00 88 1013.4
20260902113057 26 0 0.0 1.6 0.00 0.00 0.00 88 1013.4
20260902111556 26 0 0.0 1.6 0.00 0.00 0.00 88 1013.3
20260902110052 26 0 0.0 3.2 0.00 0.00 0.00 88 1013.3
20260902104550 26 0 0.0 3.2 0.00 0.00 0.00 87 1013.4
20260902103101 26 0 0.0 0.0 0.00 0.00 0.00 87 1013.4
20260902101556 26 0 0.0 0.0 0.00 0.00 0.00 86 1013.4
20260902100050 26 0 0.0 0.0 0.00 0.00 0.00 87 1013.3
20260902094546 27 0 0.0 0.0 0.00 0.00 0.00 86 1013.4
20260902093128 27 0 0.0 0.0 0.00 0.00 0.00 86 1013.3
20260902091553 27 0 0.0 0.0 0.00 0.00 0.00 86 1013.4
20260902090100 26 0 0.0 3.2 0.00 0.00 0.00 84 1013.4
20260902084557 26 0 0.0 0.0 0.00 0.00 0.00 82 1013.2
20260902083053 26 0 0.0 0.0 0.00 0.00 0.00 82 1013.3
20260902081614 26 0 0.0 0.0 0.00 0.00 0.00 82 1013.2
20260902080054 26 0 0.0 0.0 0.00 0.00 0.00 83 1013.0
20260902074556 26 0 0.0 0.0 0.00 0.00 0.00 84 1013.3
20260902073050 26 0 0.0 0.0 0.00 0.00 0.00 85 1013.3
20260902071603 26 0 0.0 0.0 0.00 0.00 0.00 85 1013.6
20260902070056 25 0 0.0 0.0 0.00 0.00 0.00 85 1013.6
20260902064601 25 0 0.0 0.0 0.00 0.00 0.00 86 1013.6
20260902063054 25 0 0.0 0.0 0.00 0.00 0.00 86 1013.6
20260902061554 25 0 0.0 0.0 0.00 0.00 0.00 86 1013.6
20260902060108 25 0 0.0 0.0 0.00 0.00 0.00 87 1013.4
20260902054552 25 0 0.0 0.0 0.00 0.00 0.00 87 1013.4
20260902053052 25 0 0.0 0.0 0.00 0.00 0.00 87 1013.4
20260902051556 25 0 0.0 0.0 0.00 0.00 0.00 86 1013.5
20260902050109 25 0 0.0 0.0 0.00 0.00 0.00 86 1013.6
20260902044607 25 0 0.0 0.0 0.00 0.00 0.00 87 1013.4
20260902043105 25 0 0.0 0.0 0.00 0.00 0.00 87 1013.6
20260902041554 25 0 0.0 0.0 0.00 0.00 0.00 86 1013.7
20260902040056 25 0 0.0 0.0 0.00 0.00 0.00 87 1013.9
20260902034559 25 0 0.0 0.0 0.00 0.00 0.00 86 1013.8
20260902033100 26 0 0.0 0.0 0.00 0.00 0.00 86 1013.9
20260902031559 26 0 0.0 0.0 0.00 0.00 0.00 86 1013.9
20260902030051 26 0 0.0 0.0 0.00 0.00 0.00 86 1013.6
20260902024558 26 0 0.0 0.0 0.00 0.00 0.00 85 1013.5
20260902023053 26 0 0.0 0.0 0.00 0.00 0.00 85 1013.3
20260902021556 26 0 0.0 0.0 0.00 0.00 0.00 84 1012.9
20260902020052 26 0 0.0 0.0 0.00 0.00 0.00 84 1012.9
20260902014552 27 0 0.0 0.0 0.00 0.00 0.00 83 1012.5
20260902013049 27 0 0.0 0.0 0.00 0.00 0.00 83 1012.5
20260902011556 27 0 0.0 0.0 0.00 0.00 0.00 84 1012.4
20260902010052 27 0 0.0 0.0 0.00 0.00 0.00 84 1012.5
20260902004553 27 0 0.0 0.0 0.00 0.00 0.00 83 1012.7
20260902003048 27 0 0.0 0.0 0.00 0.00 0.00 83 1012.8
20260902001550 27 0 0.0 0.0 0.00 0.00 0.00 83 1012.5
20260902000048 27 0 0.0 0.0 0.00 0.00 0.00 83 1012.6
20260901234551 27 0 0.0 0.0 0.00 0.00 0.00 83 1012.8
20260901233100 27 0 0.0 0.0 0.00 0.00 0.00 80 1012.8
20260901231554 27 0 0.0 1.6 0.00 0.00 0.00 78 1013.0
20260901230101 27 0 0.0 3.2 0.00 0.00 0.00 77 1013.1
20260901224557 28 0 0.0 3.2 0.00 0.00 0.00 74 1013.3
20260901223055 30 0 0.0 12.9 0.00 0.00 0.00 68 1013.4
20260901221556 33 0 0.0 14.5 0.00 0.00 0.00 59 1013.5
20260901220051 33 0 0.0 4.8 0.00 0.00 0.00 54 1013.0
20260901214558 33 0 0.0 1.6 0.00 0.00 0.00 54 1013.0
20260901213111 33 0 0.0 0.0 0.00 0.00 0.00 55 1013.0
20260901211553 33 0 0.0 6.4 0.00 0.00 0.00 54 1013.0
20260901210052 33 0 0.0 3.2 0.00 0.00 0.00 57 1013.0
20260901204551 33 0 0.0 0.0 0.00 0.00 0.00 59 1012.9
20260901203118 33 0 0.0 0.0 0.00 0.00 0.00 61 1013.2
20260901201553 33 0 0.0 3.2 0.00 0.00 0.00 62 1013.7
20260901200053 32 0 0.0 3.2 0.00 0.00 0.00 62 1014.0
20260901194550 32 0 0.0 0.0 0.00 0.00 0.00 63 1014.5
20260901193120 32 0 0.0 3.2 0.00 0.00 0.00 63 1014.4
20260901191554 32 0 0.0 4.8 0.00 0.00 0.00 65 1014.4
20260901184552 32 0 0.0 3.2 0.00 0.00 0.00 66 1014.4
20260901183055 31 0 0.0 0.0 0.00 0.00 0.00 66 1014.7
20260901181603 31 0 0.0 0.0 0.00 0.00 0.00 67 1015.1
20260901180057 31 0 0.0 0.0 0.00 0.00 0.00 66 1015.1
20260901174551 31 0 0.0 4.8 0.00 0.00 0.00 69 1015.4
20260901173048 31 0 0.0 3.2 0.00 0.00 0.00 69 1015.7
20260901171606 30 0 0.0 3.2 0.00 0.00 0.00 73 1015.9
20260901170104 30 0 0.0 9.7 0.00 0.00 0.00 73 1016.2
20260901164555 30 0 0.0 3.2 0.00 0.00 0.00 73 1016.3
20260901163100 30 0 0.0 3.2 0.00 0.00 0.00 73 1016.2